User: anonymous   Login
Location: El Mouella
(16.4949°N, 9.1594°W)
Time: 19:09:18
(UTC+00:00)
Language:

Cosmos 1782 Rocket - Orbit

View from above orbital plane
View from above orbital plane
View from above satellite
View from above satellite

Ground track
Ground track

The orbit data is extracted from the following two-line orbital elements,

1 16987U 86074B   21169.62622775  .00000075  00000-0  62707-5 0  9991
2 16987  82.5164  20.6962 0019541 120.0011 294.0919 14.83114573854119
Epoch (UTC): 18 June 2021 15:01:46
Eccentricity: 0.0019541
inclination: 82.5164°
perigee height: 606 km
apogee height: 633 km
right ascension of ascending node: 20.6962°
argument of perigee: 120.0011°
revolutions per day: 14.83114573
mean anomaly at epoch: 294.0919°
orbit number at epoch: 85411

The dashed part of the orbit path shows where the satellite is in the earth's shadow,  

DLR